www.pogodaiklimat.ru
ПОГОДА на Базе ВВС Индиан Спрингс
Время
(UTC), дата
01:58 26.02
02:58 26.02
03:58 26.02
04:58 26.02
05:58 26.02
06:58 26.02
07:58 27.02
08:58 27.02
09:58 27.02
10:58 27.02
11:58 27.02
12:58 27.02
13:58 27.02
14:56 27.02
15:56 27.02
16:57 27.02
17:08 27.02
17:56 27.02
18:56 27.02
19:46 27.02
19:56 27.02
20:58 27.02
21:58 27.02
22:58 27.02
23:58 27.02
00:58 27.02
01:58 27.02
02:58 27.02
03:58 27.02
04:58 27.02
05:58 27.02
06:58 27.02
07:58 28.02
08:58 28.02
09:58 28.02
10:58 28.02
11:58 28.02
12:58 28.02
13:58 28.02
14:58 28.02
15:58 28.02
16:58 28.02
17:58 28.02
18:58 28.02
19:48 28.02
19:58 28.02
20:58 28.02
21:58 28.02
Ветер
(напр.,м/с)
Видим. Явления Облачность Т
(С)
Тd
(С)
f
(%)
Тe
(С)
Тes
(С)
Комфортность P
(гПа)
Po
(гПа)
Тmin
(С)
Tmax
(С)
R
(мм)
R24
(мм)
S
(см)
В 4 16 км ясно +9.7 -4.7 36 +7 +7 915.5
З 2 16 км ясно +9.3 -5.8 34 +8 +8 915.5
З 2 16 км ясно +6.6 -3.4 49 +4 +4 915.8
0 16 км ясно +5.8 -3.3 52 +5 +5 916.1 +5.8 +15.7
З 2 16 км ясно +5.9 -3.5 51 +4 +4 915.8
0 16 км ясно +3.3 -2.9 64 +3 +3 915.5
0 16 км ясно +2.7 -3.4 64 +2 +2 915.8
0 16 км ясно +1.6 -3.1 71 +1 +1 915.5
0 16 км ясно +0.8 -3.5 73 -0 -0 1025.4 915.2
0 16 км ясно +0.8 -3.1 75 -0 -0 1025.4 915.2 +0.7 +6.0
0 16 км ясно +0.4 -4.1 72 -0 -0 1025.8 915.5
0 16 км ясно +0.8 -4.2 69 0 0 1026.4 915.8
0 16 км ясно +1.9 -3.6 67 +1 +1 1027.3 916.4
З 1 16 км ясно +3.1 -3.1 64 +1 +2 1027.6 916.7
0 16 км ясно +6.9 -5.8 40 +7 +11 1027.8 917.0
н/о н/о 0.0 +10.9
0 16 км ясно +12.0 -7.0 26 +12 +24 опасность
простуды
917.0
0 16 км ясно +13.9 -7.5 22 +14 +26 опасность
простуды
1026.7 916.7
0 16 км ясно +17.0 -8.2 17 +17 +31 опасность
простуды
1026.0 916.1
СЗ 1 16 км ясно +19.0 -8.0 15 +20 +31 1024.4 914.9
СЗ 1 16 км ясно +19.1 -8.2 15 +20 +32 1024.4 914.9
0 16 км ясно +19.4 -8.8 14 +19 +32 опасность
простуды
1023.6 914.0
0 16 км ясно +19.9 -9.4 13 +19 +29 1023.3 913.7
0 16 км ясно +19.8 -9.4 13 +19 +25 1022.9 913.4 +18.7 +20.1
В 4 16 км ясно +18.6 -6.9 17 +18 +19 1022.9 913.4
В 4 16 км ясно +14.7 -5.1 25 +14 +14 1023.7 913.7
В 4 16 км ясно +13.1 -5.5 27 +12 +12 1024.4 914.3
Ю 4 16 км ясно +12.1 -5.9 28 +10 +10 914.6
З 3 16 км ясно +9.6 -2.4 43 +8 +8 914.9
0 16 км ясно +9.2 -2.4 44 +9 +9 914.9 +8.5 +19.9
0 16 км ясно +6.7 -1.2 57 +6 +6 914.9
0 16 км ясно +6.3 -1.6 57 +6 +6 914.9
0 16 км ясно +6.5 -1.4 57 +6 +6 1023.7 914.6
0 16 км ясно +5.5 -2.6 56 +5 +5 1023.3 914.3
0 16 км 2/0 6900 м
[верхняя]
+5.0 -1.5 63 +4 +4 1023.2 914.0
0 16 км ясно +5.7 -1.7 59 +5 +5 1023.0 914.0 +4.4 +9.2
0 16 км ясно +5.0 -1.5 63 +4 +4 1022.8 913.7
0 16 км ясно +5.7 -1.2 61 +5 +5 1023.3 913.7
0 16 км ясно +4.9 -1.1 65 +4 +4 1023.8 914.0
З 1 16 км 5/0 5400 м
[средняя]
+6.1 -0.4 63 +5 +5 1024.5 914.6
0 16 км 5/0 5100 м
[средняя]
+8.6 -2.1 47 +8 +11 1024.5 914.6
0 16 км 5/0 5100 м
[средняя]
+11.5 -2.0 39 +11 +17 1024.1 914.6 +4.4 +11.5
0 16 км 2/0 5700 м
[средняя]
+14.5 -5.8 24 +15 +25 1023.4 914.0
0 16 км 5/0 5100 м
[средняя]
+16.0 -6.3 21 +16 +26 1022.4 913.1
В 2 16 км ясно +18.0 -9.0 15 +18 +28 1020.8 911.9
СВ 1 16 км ясно +18.2 -8.9 15 +19 +31 опасность
простуды
1020.8 911.9
ЮВ 3 16 км 2/0 5100 м
[средняя]
+19.0 -8.2 15 +19 +25 1020.1 911.3
ЮВ 4 16 км ясно +19.9 -8.4 14 +19 +24 1019.2 910.7
Местоположение метеостанции Indian Springs Auxiliary AFLD Nellis AFB: широта 36.5833 долгота -115.6667 высота над уровнем моря 955 м.
В архиве по умолчанию представлена погода на Базе ВВС Индиан Спрингс за последние 1-2 суток. Обновление информации о фактической погоде в базе происходит ежечасно! Архивные данные за месяц целиком и за предыдущие месяцы Вы можете получить, выбрав интересующий диапазон дат из раскрывающегося списка и нажав кнопку "Ввод!".
Внимание! Архив погоды МЕТАР в базе сайта по станциям, не включенным в климатический монитор, хранится не более 60 дней. Нет смысла пытаться выбрать более раннюю дату.
*Определитесь, кто Вы:
Внимание! Время в таблицах - всемирное. Для получения местного времени необходимо прибавить поправку, которая равна ч.
Смотрите также архив погоды в соседних городах и на ближайших метеорологических станциях:
Партнеры нашего сайта:      
Пояснения к столбцам:
  • Ветер - указаны скорость ветра в м/с - средняя за 10 мин, порывы в срок и между сроками (в фигурных скобках) и направление, откуда дует ветер: С - северный,
  • СВ - северо-восточный, В - восточный, ЮВ - юго-восточный, Ю - южный, ЮЗ - юго-западный, З - западный, СЗ - северо-западный.
  • Видимость - горизонтальная дальность видимости в метрах или километрах. При видимости от 1 до 10 км при отсутствии осадков обычно наблюдается дымка, при ухудшении видимости до 1 км и менее - туман. В сухую погоду видимость может ухудшаться дымом, пылью или мглою.
  • Явления - указаны атмосферные явления, наблюдавшиеся в срок или в последний час перед сроком; фигурными скобками обозначены явления, наблюдавшиеся между сроками (за 1-3 часа до срока); квадратными скобками обозначены град или гололедные отложения с указанием их диаметра в мм.
  • Облачность - указаны через наклонную черту общая и нижняя облачность в баллах и высота нижней границы облаков в метрах; квадратными скобками обозначены формы облаков: Ci - перистые, Cs - перисто-слоистые, Cc - перисто-кучевые, Ac - высококучевые, As - высокослоистые, Sc - слоисто-кучевые, Ns - слоисто-дождевые, Cu - кучевые, Cb - кучево-дождевые. Подробнее классификацию облаков см. в Атласе облаков (PDF).
  • T - Температура воздуха - температура, измеренная на высоте 2 м над землей.
  • Td - Температура точки росы - температура, при понижении до которой содержащийся в воздухе водяной пар достигнет насыщения.
  • f - Относительная влажность воздуха - влажноcть воздуха, измеренная на высоте 2 м над землей.
  • Te - Эффективная температура - температура, которую ощущает одетый по сезону человек в тени. Характеристика душности погоды. При расчете учитывается влияние влажности воздуха и скорости ветра на теплоощущения человека.
  • Tes - Эффективная температура на солнце - температура, которую ощущает человек, с поправкой на солнечный нагрев. Характеристика знойности погоды. Зависит от высоты солнца над горизонтом, облачности и скорости ветра. Ночью, в пасмурную погоду, а также при ветре 12 м/с и более поправка равна нулю.
  • P - Атмосферное давление - приведенное к уровню моря атмосферное давление.
  • Po - Атмосферное давление - измеренное на уровне метеостанции атмосферное давление.
  • Tmin - Минимальная температура - минимум температуры воздуха на высоте 2 м над землей.
  • Tmax - Максимальная температура - максимум температуры воздуха на высоте 2 м над землей.
  • R - Количество осадков - Количество выпавших осадков за период времени, мм. При наведении курсора мыши на число - период времени, за который выпало указанное количество осадков.
  • R24 - Количество осадков - Количество выпавших осадков за 24 часа, мм.
  • S - Снежный покров - Высота снежного покрова, см. При наведении курсора мыши на число - состояние снежного покрова и степень покрытия местности в баллах.